Regional Weather Roundup
Issued by NWS Wakefield, VA

Home | Current Version | Previous Version | Graphics & Text | Print | Product List | Glossary On
Versions: 1 2 3 4 5 6 7 8 9 10 11 12 13 14 15 16 17 18 19 20 21 22 23 24 25 26 27 28 29 30 31 32 33 34 35 36 37 38 39 40 41 42 43 44 45 46 47 48 49 50
000
ASUS41 KAKQ 260515
RWRAKQ

REGIONAL WEATHER ROUNDUP
NATIONAL WEATHER SERVICE WAKEFIELD VA
100 AM EDT THU APR 26 2018

Note: "fair" indicates few or no clouds below 12,000 feet with no
significant weather and/or obstructions to visibility. * = Denotes
station may not report precipitation (e.g., rain,snow,etc.),
thunder or fog.

VAZ042-051-052>054-056-260600-
NORTHERN VIRGINIA

CITY           SKY/WX    TMP DP  RH WIND       PRES   REMARKS
WASH NATIONAL  FAIR      60  50  69 NW12      29.74F
DULLES         PTCLDY    58  49  72 NW14G24   29.76S
FORT BELVOIR   FAIR      54  51  91 NW3       29.75R
QUANTICO       FAIR      59  53  80 NW8       29.76S
FREDERICKSBRG* FAIR      60  52  75 NW5       29.76R
STAFFORD*      FAIR      57  54  91 NW7       29.79F
WARRENTON      FAIR      59  48  65 NW12      29.77R
CULPEPER*      FAIR      61  47  59 N8G17     29.78R
MANASSAS*      FAIR      59  49  69 NW10      29.77R
LEESBURG*      CLOUDY    57  48  72 NW13      29.78R
WINCHESTER     FAIR      52  41  66 NW20G25   29.81F
FRONT ROYAL*   MOCLDY    55  45  67 NW9       29.80R
LURAY*         MOCLDY    57  45  62 N14G20    29.81R
$$

VAZ048-049-060>072-079>083-260600-
CENTRAL AND SOUTH CENTRAL VIRGINIA

CITY           SKY/WX    TMP DP  RH WIND       PRES   REMARKS
RICHMOND       MOCLDY    56  56 100 CALM      29.76S FOG
CHESTERFIELD*  MOCLDY    55  55 100 CALM      29.77S FOG
PETERSBURG*    FOG       51  50  95 CALM      29.77S VSB 1/4
HANOVER        CLOUDY    58  57  97 CALM      29.78R
TAPPAHANNOCK*  FAIR      57  57  98 W3        29.76S
QUINTON*       MOCLDY    54  54 100 MISG      29.75S
CHARLOTTSVILLE FAIR      62  49  62 NW8       29.78R
GORDONSVILLE*  MOCLDY    59  53  81 CALM      29.77R
ORANGE*        CLOUDY    57  50  77 CALM      29.77S
LOUISA*        CLOUDY    54  54  99 CALM      29.81R FOG
BUMPASS*       NOT AVBL
FARMVILLE*     FAIR     N/A N/A N/A CALM      29.78R
CREWE*         FAIR      56  56 100 W3        29.78R
FORT PICKETT*  FAIR      56  56 100 W3        29.78R
CHASE CITY*    CLOUDY    55  55 100 NW5       29.79S
CLARKSVILLE*   FAIR      55  54  94 NW3       29.79F
SOUTH HILL*    CLOUDY    57  57 100 W3        29.85R
LAWRENCEVILLE* CLOUDY    56  55  97 CALM      29.78R
EMPORIA*         N/A     55  55 100 CALM      29.79S
$$

VAZ088>098-260600-
SOUTHEAST VIRGINIA

CITY           SKY/WX    TMP DP  RH WIND       PRES   REMARKS
NORFOLK        FAIR      60  58  92 SW5       29.75R
VIRGINIA BEACH FAIR      56  56 100 SW6       29.74R
NORFOLK NAVAL  MOCLDY    60  57  89 SW5       29.77R
WEST POINT*      N/A     53  52  98 CALM      29.76S VSB 1/2
SALUDA*        FAIR      56  56 100 CALM      29.74S
NEWPORT NEWS   FAIR      57  56  96 W6        29.75S
LANGLEY AFB    NOT AVBL
FORT EUSTIS    FAIR      58  57  97 W5        29.73S
WILLIAMSBURG*  FAIR      59  57  94 CALM      29.77R
HR EXEC AP*    FAIR      54  54 100 W3        29.77R FOG
FRANKLIN*      FAIR      58  57  98 CALM      29.77S FOG
US460-WAKEFLD  FAIR      56  56 100 CALM      29.77R FOG
$$

VAZ020-022-025-037-045-260600-
WEST CENTRAL AND SOUTHWEST VIRGINIA

CITY           SKY/WX    TMP DP  RH WIND       PRES   REMARKS
STAUNTON*      CLOUDY    56  47  71 N9        29.82S
WAYNESBORO*    CLOUDY    54  47  77 CALM      29.81S
HOT SPRINGS VA CLOUDY    47  45  93 NW14G20   29.85S
LYNCHBURG      FAIR      51  48  89 VRB5      29.82S
DANVILLE       FAIR      55  53  93 NW6       29.82S
SOUTH BOSTON*  FAIR      54  53  95 CALM      29.80S
MARTINSVILLE   FAIR      48  47  97 CALM      29.87S
ROANOKE        MOCLDY    57  48  72 NW8       29.86S
BLACKSBURG     CLOUDY    54  48  82 NW7       29.89S
DUBLIN*        LGT RAIN  53  49  86 NW10      29.89R
MARION*        DRIZZLE   52  51  97 NW6       29.92S
HILLSVILLE*    MOCLDY    51  48  89 NW7       29.88R
RICHLANDS*     CLOUDY    48  24  38 NW6       29.93R
WISE*          MOCLDY    48  48 100 N6        29.93F
ABINGDON*      CLOUDY    55  50  83 N5        29.91S
$$

MDZ021>025-VAZ099-100-260600-
SOUTHERN MARYLAND AND THE DELMARVA PENINSULA

CITY           SKY/WX    TMP DP  RH WIND       PRES   REMARKS
PATUXENT RIVER FAIR      58  56  93 W7        29.72S
BAY BRIDGE APT FAIR      57  55  94 W8        29.71F
LEONARDTOWN    FAIR      55  55 100 W5        29.75R
DOVER          CLOUDY    60  57  89 W10       29.68R
GEORGETOWN     FAIR      61  59  93 W3        29.68S
EASTON         NOT AVBL
CAMBRIDGE      CLOUDY    59  57  94 W6        29.70F
SALISBURY      FAIR      60  59  96 NW8       29.68F
TANGIER        MOCLDY    57  57 100 W9        29.72S
OCEAN CITY     MOCLDY    60  60 100 NW9       29.67S
WALLOPS ISLAND FAIR      61  59  93 W10       29.70R
ACCOMACK*      FAIR      59  58  96 W7        29.72S
$$

NCZ012>017-030>032-260600-
NORTH CENTRAL AND EASTERN NORTH CAROLINA

CITY           SKY/WX    TMP DP  RH WIND       PRES   REMARKS
ROANOKE RAPIDS FAIR      54  54 100 CALM      29.79R
RALEIGH        FAIR      51  51 100 CALM      29.81F
ELIZABETH CITY FAIR      59  59 100 SW7       29.77R
AHOSKIE*       FAIR      56  56 100 CALM      29.79R FOG
EDENTON*       CLOUDY    63  60  91 W3        29.79R
CURRITUCK*     NOT AVBL
KILL DEVIL HLS FAIR      61  61 100 CALM      29.75S
MANTEO         FAIR      60  60  98 W3        29.77R
CAPE HATTERAS  FAIR      64  62  93 W6        29.78R
TARBORO*       NOT AVBL
GOLDSBORO      FAIR      58  56  93 CALM      29.79F
WASHINGTON     FAIR      58  57  97 CALM      29.80R FOG
GREENVILLE     FAIR      57  57 100 CALM      29.82S
NEW BERN       FAIR      57  56  96 CALM      29.81S
WILMINGTON     CLOUDY    59  56  89 CALM      29.82F
$$

VAZ048-260600-
ELSEWHERE

CITY           SKY/WX    TMP DP  RH WIND       PRES   REMARKS
HARRISBURG PA  FAIR      56  46  69 NW17      29.72R
BALTIMORE      FAIR      55  53  93 W8        29.72S
ANNAPOLIS      FAIR      62  54  74 NW9       29.71S
ANDREWS AFB    FAIR      58  51  76 NW15G22   29.73S
PHILADELPHIA   MOCLDY    61  56  83 NW8       29.67R
HENDERSON NC   FAIR      53  48  85 CALM      29.80S
GREENSBORO     FAIR      56  50  80 NW7       29.83R
ROCKY MOUNT    FAIR      55  55 100 CALM      29.80S FOG
$$

VAZ100-260600-
MARINE

STATION/POSITION TIME  TEMP    WIND        PRES    WAVE   SWELL
                       AIR SEA DIR/SP/G            HT/PER HT/PER
                 (UTC) (F)     (DEG/KT/KT) (MB)    (FT/S) (FT/S)
BRANDYWINE LGT   0436   58     330/ 10/ 11 1004.8F
CAPE MAY NJ      0436   56 52  320/  4/ 12 1003.7F
LEWES DE         0436   59 53  320/ 13/ 14 1004.5S
15NM E FENWICK I 0450   48 48  280/  8/ 10 1004.6F   7/11   7/11
OCEAN-CITY-INLET 0436   60 54  340/ 11/ 14 1005.1S
WACHAPREAGUE VA  0436   59 62  280/  4/  6 1006.2R
THOMAS POINT MD  0500   60 54  300/ 13/ 14 1007.1F
GOOSES REEF MD   0500   58     300/ 10/ 12 1006.8
COVE POINT MD    0436   60     320/ 12/ 16 1006.7F
SOLOMONS ISLAND  0436   57 54  270/  4/  5 1006.2R
BISHOPS HEAD MD  0436   58 59  290/  9/ 11 1006.5S
PINEY POINT MD   0442          360/  5/  5   N/A
POTOMAC MD       0500   56 54  310/  6/  6 1007.7
CAMBRIDGE MD     0436   59 57              1006.6F
LEWISETTA VA     0436   59 55  280/  5/  6 1006.7R
RAPPAHANNOCK LGT 0442          260/ 10/ 11 1007.3R
YORK RVR RNG VA  0442   58     270/  8/  8 1007.7R
YORKTOWN VA      0442   60 57  270/  6/  7 1006.8R
DOMINION TERM VA 0442   60     260/  6/  6 1007.8R
KIPTOPEKE VA     0442      56  300/  5/  6   N/A
CAPE HENRY VA    0442   60     250/  7/  9   N/A
WILLOUBY STN VA  0442   59     270/  9/  9 1007.4R
S CRANEY ISL VA  0442   60     250/  6/  9 1007.3R
CAPE HENRY BUOY  0500      56                N/A     4/10   2/11
1ST LANDING BUOY 0500   58 54  280/  8/ 10 1007.7    1/ 9
64NM E OF VA BCH 0450   55 51  260/ 10/ 12 1007.0R   8/10   7/10
DUCK PIER NC     0442   62 52  270/  6/  8 1007.3S
44100 DUCK FRF   0445      55                N/A     6/ 8   2/11
44056 DUCK FRF   0430      53                N/A     4/10   2/11
OREGON INLET NC  0442   62 60  240/ 10/ 11 1007.7R
HATTERAS NC      0442   65 68  290/ 10/ 12 1008.1S
DIAMOND SHLS NC  0500   67 70  280/ 16/ 19 1008.5
CAPE LOOKOUT NC  0500          260/  7/  8 1009.7R
$$



USA.gov is the U.S. government's official web portal to all federal, state and local government web resources and services.